EW5043 Weather Reports


time (UTC)temp
C
wind
direction
speed
KPH
gust
KPH
rain 1hr
cm
rain 24hr
cm
rain mn
cm
humidity
%
barometer
mb
20260505070045 18 234 12.9 0.0 0.00 0.00 0.00 50 1000.4
20260505064538 18 208 11.3 0.0 0.00 0.00 0.00 51 1000.3
20260505063035 18 202 11.3 0.0 0.00 0.00 0.00 52 1000.3
20260505061629 18 229 11.3 0.0 0.00 0.00 0.00 53 1000.2
20260505060018 18 207 11.3 0.0 0.00 0.00 0.00 52 1000.3
20260505054518 18 209 12.9 0.0 0.00 0.00 0.00 52 1000.2
20260505053104 18 202 9.7 0.0 0.00 0.00 0.00 52 1000.2
20260505051558 19 196 9.7 0.0 0.00 0.00 0.00 50 1000.4
20260505041627 17 198 4.8 0.0 0.00 0.00 0.00 51 1000.6
20260505040017 15 206 6.4 0.0 0.00 0.00 0.00 44 1000.4
20260505034508 15 201 6.4 0.0 0.00 0.00 0.00 43 1000.5
20260505033059 16 204 4.8 0.0 0.00 0.00 0.00 51 1000.4
20260505031550 14 203 4.8 0.0 0.00 0.00 0.00 35 1000.6
20260505030043 14 203 4.8 0.0 0.00 0.00 0.00 5 1000.6
20260505024552 15 203 3.2 0.0 0.00 0.00 0.00 35 1000.7
20260505023027 16 203 3.2 0.0 0.00 0.00 0.00 51 1000.8
20260505021528 16 203 3.2 0.0 0.00 0.00 0.00 54 1001.0
20260505020005 16 237 4.8 0.0 0.00 0.00 0.00 55 1001.0
20260505014555 17 279 0.0 0.0 0.00 0.00 0.00 46 1000.9
20260505013045 17 279 1.6 0.0 0.00 0.00 0.00 46 1000.9
20260505011638 17 279 0.0 0.0 0.00 0.00 0.00 49 1000.9
20260505010028 17 279 0.0 0.0 0.00 0.00 0.00 52 1000.7
20260505004627 18 279 0.0 0.0 0.00 0.00 0.00 46 1000.8
20260505003010 18 279 0.0 0.0 0.00 0.00 0.00 43 1000.7
20260505001602 20 279 1.6 0.0 0.00 0.00 0.00 45 1000.8
20260505000051 21 279 1.6 0.0 0.00 0.00 0.00 40 1000.7
20260504234543 21 279 3.2 0.0 0.00 0.00 0.00 38 1000.7
20260504233041 22 279 1.6 0.0 0.00 0.00 0.00 35 1000.5
20260504231624 22 279 1.6 0.0 0.00 0.00 0.00 40 1000.5
20260504230115 22 279 1.6 0.0 0.00 0.00 0.00 38 1000.3
20260504224508 21 279 0.0 0.0 0.00 0.00 0.00 40 1000.4
20260504223102 21 349 0.0 0.0 0.00 0.00 0.00 43 1000.7
20260504221549 21 349 1.6 0.0 0.00 0.00 0.00 44 1000.8
20260504220141 20 349 3.2 0.0 0.00 0.00 0.00 43 1000.8
20260504214528 20 344 1.6 0.0 0.00 0.00 0.00 43 1000.9
20260504213022 20 344 3.2 0.0 0.00 0.00 0.00 44 1001.1
20260504211610 20 344 3.2 0.0 0.00 0.00 0.00 44 1001.1
20260504210104 20 344 1.6 0.0 0.00 0.00 0.00 47 1001.3
20260504204602 19 344 3.2 0.0 0.00 0.00 0.00 47 1001.4
20260504203043 18 344 3.2 0.0 0.00 0.00 0.00 49 1001.6
20260504201532 18 323 1.6 0.0 0.00 0.00 0.00 48 1001.7
20260504200022 18 323 1.6 0.0 0.00 0.00 0.00 49 1001.9
20260504194616 18 323 3.2 0.0 0.00 0.00 0.00 50 1002.1
20260504191556 17 319 1.6 0.0 0.00 0.00 0.00 52 1002.4
20260504184539 17 319 3.2 0.0 0.00 0.00 0.00 53 1002.8
20260504183032 16 316 1.6 0.0 0.00 0.00 0.00 53 1003.0
20260504181522 16 315 3.2 0.0 0.00 0.00 0.00 52 1003.0
20260504180010 16 313 3.2 0.0 0.00 0.00 0.00 51 1003.0
20260504174501 17 340 4.8 0.0 0.00 0.00 0.00 54 1003.4
20260504173055 18 304 8.0 0.0 0.00 0.00 0.00 52 1003.4
20260504171644 18 309 9.7 0.0 0.00 0.00 0.00 50 1003.4
20260504081621 12 215 6.4 0.0 0.00 0.00 0.00 53 1005.6